SB KEPS @ AMSAT $ORB13073.O Orbital Elements 13073.OSCAR
HR AMSAT ORBITAL ELEMENTS FOR OSCAR SATELLITES FROM WA5QGD FORT WORTH,TX March 14, 2013 BID: ORB13073.O TO ALL RADIO AMATEURS BT
Satellite: AO-07 Catalog number: 07530 Epoch time: 13073.05378498 Element set: 630 Inclination: 101.4259 deg RA of node: 066.0360 deg Eccentricity: 0.0012330 Arg of perigee: 113.6777 deg Mean anomaly: 276.8531 deg Mean motion: 12.53594710 rev/day Decay rate: -2.7e-07 rev/day^2 Epoch rev: 75386 Checksum: 292
Satellite: FO-29 Catalog number: 24278 Epoch time: 13072.44759352 Element set: 71 Inclination: 098.5661 deg RA of node: 143.7707 deg Eccentricity: 0.0351142 Arg of perigee: 052.3300 deg Mean anomaly: 004.7672 deg Mean motion: 13.52997488 rev/day Decay rate: -4.4e-07 rev/day^2 Epoch rev: 81836 Checksum: 315
Satellite: SO-33 Catalog number: 25509 Epoch time: 13072.84074051 Element set: 452 Inclination: 031.4307 deg RA of node: 247.4236 deg Eccentricity: 0.0351311 Arg of perigee: 043.2376 deg Mean anomaly: 097.1652 deg Mean motion: 14.28971196 rev/day Decay rate: 5.24e-06 rev/day^2 Epoch rev: 75124 Checksum: 283
Satellite: RS-22 Catalog number: 27939 Epoch time: 13073.34299022 Element set: 239 Inclination: 097.7992 deg RA of node: 266.1429 deg Eccentricity: 0.0014179 Arg of perigee: 125.5743 deg Mean anomaly: 234.6755 deg Mean motion: 14.64346562 rev/day Decay rate: 4.92e-06 rev/day^2 Epoch rev: 50541 Checksum: 328
Satellite: VO-52 Catalog number: 28650 Epoch time: 13072.51479765 Element set: 367 Inclination: 097.5754 deg RA of node: 096.0158 deg Eccentricity: 0.0025124 Arg of perigee: 232.8389 deg Mean anomaly: 289.2825 deg Mean motion: 14.83621852 rev/day Decay rate: 1.417e-05 rev/day^2 Epoch rev: 42489 Checksum: 341
Satellite: HO-68 Catalog number: 36122 Epoch time: 13073.26914444 Element set: 368 Inclination: 100.3187 deg RA of node: 132.6785 deg Eccentricity: 0.0007308 Arg of perigee: 209.6459 deg Mean anomaly: 150.4250 deg Mean motion: 13.16302568 rev/day Decay rate: -4.4e-07 rev/day^2 Epoch rev: 15592 Checksum: 292
/EX SB KEPS @ AMSAT $ORB13073.D Orbital Elements 13073.MICROS
HR AMSAT ORBITAL ELEMENTS FOR THE MICROSATS FROM WA5QGD FORT WORTH,TX March 14, 2013 BID: ORB13073.D TO ALL RADIO AMATEURS BT
Satellite: UO-11 Catalog number: 14781 Epoch time: 13072.22553428 Element set: 124 Inclination: 097.9136 deg RA of node: 134.8650 deg Eccentricity: 0.0008045 Arg of perigee: 233.0917 deg Mean anomaly: 126.9559 deg Mean motion: 14.80777742 rev/day Decay rate: 6.04e-06 rev/day^2 Epoch rev: 55973 Checksum: 311
Satellite: AO-16 Catalog number: 20439 Epoch time: 13072.85256330 Element set: 697 Inclination: 098.4636 deg RA of node: 015.1334 deg Eccentricity: 0.0012087 Arg of perigee: 083.1519 deg Mean anomaly: 310.6382 deg Mean motion: 14.32145684 rev/day Decay rate: 1.29e-06 rev/day^2 Epoch rev: 20859 Checksum: 297
Satellite: LO-19 Catalog number: 20442 Epoch time: 13072.83519411 Element set: 629 Inclination: 098.4322 deg RA of node: 017.2095 deg Eccentricity: 0.0012944 Arg of perigee: 074.5641 deg Mean anomaly: 319.4537 deg Mean motion: 14.32358564 rev/day Decay rate: 1.51e-06 rev/day^2 Epoch rev: 20878 Checksum: 298
Satellite: AO-27 Catalog number: 22825 Epoch time: 13072.87070137 Element set: 334 Inclination: 098.6098 deg RA of node: 017.9490 deg Eccentricity: 0.0008172 Arg of perigee: 200.6887 deg Mean anomaly: 192.7356 deg Mean motion: 14.29539423 rev/day Decay rate: 1.20e-06 rev/day^2 Epoch rev: 1501 Checksum: 298
Satellite: IO-26 Catalog number: 22826 Epoch time: 13071.91719819 Element set: 91 Inclination: 098.6039 deg RA of node: 017.3137 deg Eccentricity: 0.0008756 Arg of perigee: 197.2070 deg Mean anomaly: 235.5738 deg Mean motion: 14.29820524 rev/day Decay rate: 1.39e-06 rev/day^2 Epoch rev: 1500 Checksum: 303
Satellite: GO-32 Catalog number: 25397 Epoch time: 13073.07755541 Element set: 21 Inclination: 098.4043 deg RA of node: 045.0286 deg Eccentricity: 0.0001356 Arg of perigee: 161.5637 deg Mean anomaly: 260.1333 deg Mean motion: 14.23326208 rev/day Decay rate: 7.0e-07 rev/day^2 Epoch rev: 76241 Checksum: 266
Satellite: NO-44 Catalog number: 26931 Epoch time: 13072.49981237 Element set: 279 Inclination: 067.0516 deg RA of node: 146.1743 deg Eccentricity: 0.0006069 Arg of perigee: 286.4115 deg Mean anomaly: 166.0986 deg Mean motion: 14.29895416 rev/day Decay rate: 7.4e-07 rev/day^2 Epoch rev: 59774 Checksum: 341
Satellite: SO-50 Catalog number: 27607 Epoch time: 13072.80313961 Element set: 15 Inclination: 064.5573 deg RA of node: 194.4882 deg Eccentricity: 0.0057241 Arg of perigee: 191.3890 deg Mean anomaly: 311.4868 deg Mean motion: 14.72802716 rev/day Decay rate: 1.008e-05 rev/day^2 Epoch rev: 54966 Checksum: 310
Satellite: CO-55 Catalog number: 27844 Epoch time: 13072.47171141 Element set: 600 Inclination: 098.7034 deg RA of node: 082.9328 deg Eccentricity: 0.0010362 Arg of perigee: 160.2518 deg Mean anomaly: 349.1375 deg Mean motion: 14.21170508 rev/day Decay rate: 2.30e-06 rev/day^2 Epoch rev: 50313 Checksum: 266
Satellite: CO-57 Catalog number: 27848 Epoch time: 13073.06482091 Element set: 547 Inclination: 098.7121 deg RA of node: 082.9805 deg Eccentricity: 0.0010233 Arg of perigee: 163.9505 deg Mean anomaly: 228.9811 deg Mean motion: 14.20902692 rev/day Decay rate: 1.80e-06 rev/day^2 Epoch rev: 50315 Checksum: 298
Satellite: AO-51 Catalog number: 28375 Epoch time: 13072.84529811 Element set: 507 Inclination: 098.1907 deg RA of node: 032.1898 deg Eccentricity: 0.0082296 Arg of perigee: 304.9535 deg Mean anomaly: 087.3918 deg Mean motion: 14.41079609 rev/day Decay rate: 2.72e-06 rev/day^2 Epoch rev: 45760 Checksum: 335
Satellite: CP3 Catalog number: 31129 Epoch time: 13072.52159657 Element set: 412 Inclination: 097.8945 deg RA of node: 070.5941 deg Eccentricity: 0.0100229 Arg of perigee: 006.0532 deg Mean anomaly: 139.3496 deg Mean motion: 14.53500991 rev/day Decay rate: 1.266e-05 rev/day^2 Epoch rev: 31309 Checksum: 288
Satellite: CO-65 Catalog number: 32785 Epoch time: 13072.20468203 Element set: 576 Inclination: 097.7620 deg RA of node: 132.4386 deg Eccentricity: 0.0013146 Arg of perigee: 259.0882 deg Mean anomaly: 133.6311 deg Mean motion: 14.83631510 rev/day Decay rate: 1.421e-05 rev/day^2 Epoch rev: 26364 Checksum: 287
Satellite: PRISM Catalog number: 33493 Epoch time: 13073.32147351 Element set: 619 Inclination: 098.2040 deg RA of node: 227.2304 deg Eccentricity: 0.0019012 Arg of perigee: 139.0603 deg Mean anomaly: 221.2105 deg Mean motion: 14.85404260 rev/day Decay rate: 3.117e-05 rev/day^2 Epoch rev: 22383 Checksum: 241
Satellite: SOHLA-1 Catalog number: 33496 Epoch time: 13072.51261575 Element set: 992 Inclination: 098.1232 deg RA of node: 188.8513 deg Eccentricity: 0.0005358 Arg of perigee: 260.2223 deg Mean anomaly: 159.8233 deg Mean motion: 14.70205237 rev/day Decay rate: 4.74e-06 rev/day^2 Epoch rev: 22181 Checksum: 289
Satellite: SO-67 Catalog number: 35870 Epoch time: 13073.33370088 Element set: 876 Inclination: 097.2024 deg RA of node: 105.4890 deg Eccentricity: 0.0001092 Arg of perigee: 357.1912 deg Mean anomaly: 132.7738 deg Mean motion: 15.26130044 rev/day Decay rate: 4.785e-05 rev/day^2 Epoch rev: 19378 Checksum: 312
Satellite: TISAT-1 Catalog number: 36799 Epoch time: 13073.32887082 Element set: 890 Inclination: 098.0381 deg RA of node: 157.4725 deg Eccentricity: 0.0014947 Arg of perigee: 021.4028 deg Mean anomaly: 338.7814 deg Mean motion: 14.82931614 rev/day Decay rate: 1.670e-05 rev/day^2 Epoch rev: 14451 Checksum: 317
Satellite: STUDSAT Catalog number: 36801 Epoch time: 13072.20774874 Element set: 599 Inclination: 098.0470 deg RA of node: 158.6744 deg Eccentricity: 0.0011551 Arg of perigee: 007.7679 deg Mean anomaly: 044.5758 deg Mean motion: 14.87139752 rev/day Decay rate: 6.236e-05 rev/day^2 Epoch rev: 14446 Checksum: 329
Satellite: FO-69 Catalog number: 37227 Epoch time: 13058.47095845 Element set: 0079 Inclination: 071.9702 deg RA of node: 108.5053 deg Eccentricity: 0.0016475 Arg of perigee: 214.8087 deg Mean anomaly: 145.2122 deg Mean motion: 14.77380366 rev/day Decay rate: 5.09e-06 rev/day^2 Epoch rev: 01270 Checksum: 308
Satellite: FO-70 Catalog number: 37380 Epoch time: 13057.30123492 Element set: 0076 Inclination: 071.9749 deg RA of node: 111.9690 deg Eccentricity: 0.0018455 Arg of perigee: 208.9506 deg Mean anomaly: 151.0634 deg Mean motion: 14.77121324 rev/day Decay rate: -4.6e-07 rev/day^2 Epoch rev: 01260 Checksum: 281
Satellite: ALMASAT-1 Catalog number: 38078 Epoch time: 13073.24920683 Element set: 85 Inclination: 069.4843 deg RA of node: 060.4965 deg Eccentricity: 0.0717897 Arg of perigee: 268.0225 deg Mean anomaly: 083.8590 deg Mean motion: 14.20035071 rev/day Decay rate: 2.1826e-04 rev/day^2 Epoch rev: 5574 Checksum: 320
Satellite: XATCOBEO Catalog number: 38082 Epoch time: 13073.24748125 Element set: 993 Inclination: 069.4850 deg RA of node: 044.7888 deg Eccentricity: 0.0631012 Arg of perigee: 259.3454 deg Mean anomaly: 093.6066 deg Mean motion: 14.42682288 rev/day Decay rate: 4.7865e-04 rev/day^2 Epoch rev: 5617 Checksum: 336
/EX SB KEPS @ AMSAT $ORB13073.W Orbital Elements 13073.WEATHER
HR AMSAT ORBITAL ELEMENTS FOR WEATHER SATELLITES FROM WA5QGD FORT WORTH,TX March 14, 2013 BID: ORB13073.W TO ALL RADIO AMATEURS BT
Satellite: NOAA-10 Catalog number: 16969 Epoch time: 13072.54046013 Element set: 275 Inclination: 098.5551 deg RA of node: 102.4218 deg Eccentricity: 0.0013003 Arg of perigee: 161.6571 deg Mean anomaly: 000.7001 deg Mean motion: 14.27619436 rev/day Decay rate: 5.6e-07 rev/day^2 Epoch rev: 37829 Checksum: 269
Satellite: NOAA-11 Catalog number: 19531 Epoch time: 13072.27959773 Element set: 278 Inclination: 098.7131 deg RA of node: 157.5628 deg Eccentricity: 0.0011765 Arg of perigee: 170.8712 deg Mean anomaly: 221.7962 deg Mean motion: 14.15004188 rev/day Decay rate: 6.6e-07 rev/day^2 Epoch rev: 26256 Checksum: 314
